| time (UTC) | temp F | wind direction | speed knots | gust knots | rain 1hr in | rain 24hr in | rain mn in | humidity % | barometer mb |
| 20260504212515 | 74 | 225 | 4.3 | 10.4 | 0.00 | 0.00 | 0.00 | 37 | 1007.7 |
| 20260504212015 | 74 | 180 | 4.3 | 11.3 | 0.00 | 0.00 | 0.00 | 36 | 1007.8 |
| 20260504211515 | 74 | 203 | 5.2 | 10.4 | 0.00 | 0.00 | 0.00 | 37 | 1007.7 |
| 20260504211015 | 74 | 225 | 6.1 | 14.8 | 0.00 | 0.00 | 0.00 | 36 | 1007.8 |
| 20260504210515 | 74 | 203 | 4.3 | 10.4 | 0.00 | 0.00 | 0.00 | 36 | 1007.8 |
| 20260504210015 | 74 | 225 | 5.2 | 12.2 | 0.00 | 0.00 | 0.00 | 36 | 1007.9 |
| 20260504205515 | 74 | 203 | 4.3 | 10.4 | 0.00 | 0.00 | 0.00 | 36 | 1007.9 |
| 20260504205015 | 74 | 225 | 3.5 | 9.6 | 0.00 | 0.00 | 0.00 | 36 | 1007.9 |
| 20260504204515 | 74 | 248 | 5.2 | 11.3 | 0.00 | 0.00 | 0.00 | 37 | 1007.9 |
| 20260504204015 | 74 | 225 | 5.2 | 13.0 | 0.00 | 0.00 | 0.00 | 36 | 1007.9 |
| 20260504203517 | 74 | 203 | 4.3 | 15.6 | 0.00 | 0.00 | 0.00 | 38 | 1007.9 |
| 20260504203017 | 73 | 225 | 7.0 | 19.1 | 0.00 | 0.00 | 0.00 | 37 | 1007.9 |
| 20260504202517 | 73 | 203 | 6.1 | 13.9 | 0.00 | 0.00 | 0.00 | 38 | 1007.8 |
| 20260504202017 | 73 | 158 | 4.3 | 12.2 | 0.00 | 0.00 | 0.00 | 37 | 1007.8 |
| 20260504201517 | 72 | 203 | 6.1 | 13.9 | 0.00 | 0.00 | 0.00 | 38 | 1008.0 |
| 20260504201017 | 72 | 203 | 4.3 | 12.2 | 0.00 | 0.00 | 0.00 | 37 | 1008.0 |
| 20260504200517 | 73 | 203 | 5.2 | 13.0 | 0.00 | 0.00 | 0.00 | 36 | 1008.1 |
| 20260504200017 | 73 | 158 | 4.3 | 10.4 | 0.00 | 0.00 | 0.00 | 36 | 1008.1 |
| 20260504195517 | 73 | 225 | 5.2 | 12.2 | 0.00 | 0.00 | 0.00 | 38 | 1008.1 |
| 20260504195017 | 73 | 225 | 4.3 | 14.8 | 0.00 | 0.00 | 0.00 | 37 | 1008.3 |
| 20260504194517 | 73 | 203 | 6.1 | 13.0 | 0.00 | 0.00 | 0.00 | 37 | 1008.3 |
| 20260504194017 | 72 | 225 | 5.2 | 9.6 | 0.00 | 0.00 | 0.00 | 40 | 1008.4 |
| 20260504193517 | 72 | 225 | 4.3 | 13.9 | 0.00 | 0.00 | 0.00 | 38 | 1008.4 |
| 20260504193017 | 72 | 225 | 6.1 | 11.3 | 0.00 | 0.00 | 0.00 | 36 | 1008.4 |
| 20260504192517 | 71 | 225 | 5.2 | 15.6 | 0.00 | 0.00 | 0.00 | 37 | 1008.4 |
| 20260504192017 | 72 | 203 | 7.8 | 18.2 | 0.00 | 0.00 | 0.00 | 37 | 1008.6 |
| 20260504191517 | 72 | 203 | 4.3 | 10.4 | 0.00 | 0.00 | 0.00 | 37 | 1008.6 |
| 20260504191016 | 71 | 203 | 5.2 | 10.4 | 0.00 | 0.00 | 0.00 | 41 | 1008.6 |
| 20260504190517 | 71 | 225 | 4.3 | 9.6 | 0.00 | 0.00 | 0.00 | 37 | 1008.7 |
| 20260504190017 | 72 | 225 | 6.1 | 12.2 | 0.00 | 0.00 | 0.00 | 37 | 1008.7 |
| 20260504185517 | 71 | 203 | 4.3 | 13.9 | 0.00 | 0.00 | 0.00 | 39 | 1008.7 |
| 20260504185017 | 71 | 225 | 3.5 | 7.8 | 0.00 | 0.00 | 0.00 | 37 | 1008.8 |
| 20260504184517 | 72 | 180 | 6.1 | 18.2 | 0.00 | 0.00 | 0.00 | 37 | 1008.8 |
| 20260504184016 | 73 | 158 | 5.2 | 12.2 | 0.00 | 0.00 | 0.00 | 36 | 1008.9 |
| 20260504183517 | 74 | 135 | 4.3 | 9.6 | 0.00 | 0.00 | 0.00 | 35 | 1009.0 |
| 20260504183017 | 74 | 203 | 5.2 | 13.9 | 0.00 | 0.00 | 0.00 | 38 | 1009.0 |
| 20260504182517 | 73 | 248 | 5.2 | 10.4 | 0.00 | 0.00 | 0.00 | 37 | 1009.0 |
| 20260504182017 | 73 | 248 | 5.2 | 13.0 | 0.00 | 0.00 | 0.00 | 37 | 1009.1 |
| 20260504181516 | 72 | 225 | 5.2 | 11.3 | 0.00 | 0.00 | 0.00 | 38 | 1009.2 |
| 20260504181016 | 72 | 203 | 7.0 | 14.8 | 0.00 | 0.00 | 0.00 | 37 | 1009.3 |
| 20260504180517 | 72 | 203 | 6.1 | 16.5 | 0.00 | 0.00 | 0.00 | 38 | 1009.3 |
| 20260504180016 | 72 | 225 | 5.2 | 13.0 | 0.00 | 0.00 | 0.00 | 37 | 1009.5 |
| 20260504175516 | 71 | 225 | 6.1 | 16.5 | 0.00 | 0.00 | 0.00 | 42 | 1009.5 |
| 20260504175016 | 71 | 203 | 5.2 | 10.4 | 0.00 | 0.00 | 0.00 | 38 | 1009.5 |
| 20260504174516 | 71 | 225 | 7.0 | 13.9 | 0.00 | 0.00 | 0.00 | 38 | 1009.5 |
| 20260504174016 | 70 | 225 | 5.2 | 11.3 | 0.00 | 0.00 | 0.00 | 41 | 1009.5 |
| 20260504173516 | 70 | 203 | 6.1 | 13.9 | 0.00 | 0.00 | 0.00 | 39 | 1009.6 |
| 20260504173016 | 70 | 225 | 6.1 | 13.9 | 0.00 | 0.00 | 0.00 | 39 | 1009.7 |
| 20260504172516 | 69 | 225 | 5.2 | 12.2 | 0.00 | 0.00 | 0.00 | 40 | 1009.8 |
| 20260504172017 | 70 | 203 | 7.8 | 16.5 | 0.00 | 0.00 | 0.00 | 37 | 1010.0 |
| 20260504171516 | 70 | 158 | 4.3 | 13.9 | 0.00 | 0.00 | 0.00 | 40 | 1009.9 |
| 20260504171016 | 70 | 203 | 5.2 | 11.3 | 0.00 | 0.00 | 0.00 | 40 | 1010.1 |
| 20260504170516 | 69 | 225 | 5.2 | 10.4 | 0.00 | 0.00 | 0.00 | 39 | 1010.3 |
| 20260504151016 | 67 | 203 | 5.2 | 11.3 | 0.00 | 0.00 | 0.00 | 40 | 1011.2 |
| 20260504150516 | 67 | 225 | 5.2 | 13.9 | 0.00 | 0.00 | 0.00 | 43 | 1011.3 |
| 20260504141016 | 63 | 180 | 5.2 | 13.0 | 0.00 | 0.00 | 0.00 | 45 | 1012.0 |
| 20260504140516 | 63 | 225 | 5.2 | 16.5 | 0.00 | 0.00 | 0.00 | 45 | 1012.1 |
| 20260504130516 | 59 | 225 | 5.2 | 15.6 | 0.00 | 0.00 | 0.00 | 49 | 1012.6 |
| 20260504110516 | 40 | 0.0 | 1.7 | 0.00 | 0.00 | 0.00 | 86 | 1012.6 | |
| 20260504100515 | 38 | 0.0 | 0.9 | 0.00 | 0.00 | 0.00 | 86 | 1012.4 | |
| 20260504081515 | 41 | 203 | 1.7 | 4.3 | 0.00 | 0.00 | 0.00 | 76 | 1012.3 |
| 20260504081015 | 41 | 203 | 1.7 | 3.5 | 0.00 | 0.00 | 0.00 | 77 | 1012.3 |
| 20260504080515 | 41 | 180 | 0.9 | 3.5 | 0.00 | 0.00 | 0.00 | 77 | 1012.4 |
| 20260504050515 | 39 | 0.0 | 0.0 | 0.00 | 0.00 | 0.00 | 85 | 1011.6 | |
| 20260504050015 | 39 | 0.0 | 0.0 | 0.00 | 0.00 | 0.00 | 84 | 1011.5 | |
| 20260504045515 | 39 | 0.0 | 0.0 | 0.00 | 0.00 | 0.00 | 83 | 1011.6 | |
| 20260504045015 | 39 | 0.0 | 0.0 | 0.00 | 0.00 | 0.00 | 83 | 1011.6 | |
| 20260504044515 | 39 | 0.0 | 0.0 | 0.00 | 0.00 | 0.00 | 83 | 1011.7 | |
| 20260504044015 | 39 | 0.0 | 0.0 | 0.00 | 0.00 | 0.00 | 82 | 1011.7 | |
| 20260504043515 | 40 | 0.0 | 0.0 | 0.00 | 0.00 | 0.00 | 82 | 1011.7 | |
| 20260504043015 | 40 | 0.0 | 0.0 | 0.00 | 0.00 | 0.00 | 82 | 1011.7 | |
| 20260504042515 | 40 | 0.0 | 0.0 | 0.00 | 0.00 | 0.00 | 81 | 1011.7 | |
| 20260504042015 | 40 | 0.0 | 0.0 | 0.00 | 0.00 | 0.00 | 82 | 1011.7 | |
| 20260504041515 | 41 | 0.0 | 0.0 | 0.00 | 0.00 | 0.00 | 83 | 1011.6 | |
| 20260504041015 | 41 | 0.0 | 0.0 | 0.00 | 0.00 | 0.00 | 82 | 1011.5 | |
| 20260504040515 | 41 | 0.0 | 0.0 | 0.00 | 0.00 | 0.00 | 82 | 1011.5 | |
| 20260504040015 | 41 | 0.0 | 0.0 | 0.00 | 0.00 | 0.00 | 81 | 1011.4 | |
| 20260504035516 | 41 | 0.0 | 0.0 | 0.00 | 0.00 | 0.00 | 81 | 1011.4 | |
| 20260504035016 | 41 | 0.0 | 0.0 | 0.00 | 0.00 | 0.00 | 81 | 1011.3 | |
| 20260504034516 | 42 | 0.0 | 0.0 | 0.00 | 0.00 | 0.00 | 80 | 1011.3 | |
| 20260504034016 | 42 | 0.0 | 0.0 | 0.00 | 0.00 | 0.00 | 80 | 1011.4 | |
| 20260504033516 | 42 | 0.0 | 0.0 | 0.00 | 0.00 | 0.00 | 80 | 1011.3 | |
| 20260504033016 | 42 | 0.0 | 0.0 | 0.00 | 0.00 | 0.00 | 81 | 1011.3 | |
| 20260504032516 | 42 | 0.0 | 0.0 | 0.00 | 0.00 | 0.00 | 82 | 1011.4 | |
| 20260504032021 | 42 | 0.0 | 0.0 | 0.00 | 0.00 | 0.00 | 81 | 1011.3 | |
| 20260504031516 | 42 | 0.0 | 0.0 | 0.00 | 0.00 | 0.00 | 80 | 1011.3 | |
| 20260504031016 | 42 | 0.0 | 0.0 | 0.00 | 0.00 | 0.00 | 81 | 1011.4 | |
| 20260504030516 | 42 | 0.0 | 0.0 | 0.00 | 0.00 | 0.00 | 81 | 1011.4 | |
| 20260504030016 | 42 | 0.0 | 0.0 | 0.00 | 0.00 | 0.00 | 80 | 1011.4 | |
| 20260504025516 | 42 | 0.0 | 0.0 | 0.00 | 0.00 | 0.00 | 76 | 1011.4 | |
| 20260504025016 | 43 | 0.0 | 0.0 | 0.00 | 0.00 | 0.00 | 75 | 1011.4 | |
| 20260504024516 | 43 | 0.0 | 0.0 | 0.00 | 0.00 | 0.00 | 76 | 1011.4 | |
| 20260504024016 | 43 | 0.0 | 0.0 | 0.00 | 0.00 | 0.00 | 76 | 1011.5 | |
| 20260504023516 | 43 | 0.0 | 0.0 | 0.00 | 0.00 | 0.00 | 74 | 1011.5 | |
| 20260504023016 | 44 | 0.0 | 0.0 | 0.00 | 0.00 | 0.00 | 73 | 1011.5 | |
| 20260504022516 | 44 | 0.0 | 0.0 | 0.00 | 0.00 | 0.00 | 71 | 1011.4 | |
| 20260504022016 | 44 | 0.0 | 0.0 | 0.00 | 0.00 | 0.00 | 69 | 1011.4 | |
| 20260504021516 | 45 | 0.0 | 0.0 | 0.00 | 0.00 | 0.00 | 68 | 1011.4 | |
| 20260504021016 | 45 | 0.0 | 0.0 | 0.00 | 0.00 | 0.00 | 68 | 1011.4 | |
| 20260504020515 | 45 | 0.0 | 0.0 | 0.00 | 0.00 | 0.00 | 67 | 1011.4 | |
| 20260504020016 | 46 | 0.0 | 0.0 | 0.00 | 0.00 | 0.00 | 66 | 1011.4 | |
| 20260504015516 | 46 | 0.0 | 0.0 | 0.00 | 0.00 | 0.00 | 64 | 1011.4 | |
| 20260504015016 | 46 | 0.0 | 0.0 | 0.00 | 0.00 | 0.00 | 64 | 1011.4 | |
| 20260504014516 | 47 | 0.0 | 0.0 | 0.00 | 0.00 | 0.00 | 63 | 1011.4 | |
| 20260504014015 | 47 | 0.0 | 0.0 | 0.00 | 0.00 | 0.00 | 60 | 1011.4 | |
| 20260504013516 | 48 | 0.0 | 0.0 | 0.00 | 0.00 | 0.00 | 59 | 1011.4 | |
| 20260504013016 | 48 | 0.0 | 0.0 | 0.00 | 0.00 | 0.00 | 58 | 1011.4 | |
| 20260504012516 | 49 | 0.0 | 0.0 | 0.00 | 0.00 | 0.00 | 57 | 1011.3 | |
| 20260504012016 | 49 | 0.0 | 0.0 | 0.00 | 0.00 | 0.00 | 57 | 1011.3 | |
| 20260504011515 | 50 | 0.0 | 0.0 | 0.00 | 0.00 | 0.00 | 55 | 1011.3 | |
| 20260504011015 | 50 | 0.0 | 0.0 | 0.00 | 0.00 | 0.00 | 53 | 1011.3 | |
| 20260504010516 | 51 | 0.0 | 0.0 | 0.00 | 0.00 | 0.00 | 52 | 1011.3 | |
| 20260504010015 | 51 | 0.0 | 0.0 | 0.00 | 0.00 | 0.00 | 52 | 1011.2 | |
| 20260504005515 | 52 | 0.0 | 0.0 | 0.00 | 0.00 | 0.00 | 51 | 1011.1 | |
| 20260504005015 | 52 | 0.0 | 0.0 | 0.00 | 0.00 | 0.00 | 52 | 1011.1 | |
| 20260504004515 | 53 | 0.0 | 0.0 | 0.00 | 0.00 | 0.00 | 51 | 1011.1 | |
| 20260504004015 | 54 | 0.0 | 0.0 | 0.00 | 0.00 | 0.00 | 50 | 1011.1 | |
| 20260504003515 | 54 | 0.0 | 0.9 | 0.00 | 0.00 | 0.00 | 47 | 1011.0 | |
| 20260504003015 | 54 | 0.0 | 0.9 | 0.00 | 0.00 | 0.00 | 46 | 1010.9 | |
| 20260504002515 | 54 | 270 | 0.9 | 2.6 | 0.00 | 0.00 | 0.00 | 45 | 1010.9 |
| 20260504002015 | 55 | 293 | 1.7 | 3.5 | 0.00 | 0.00 | 0.00 | 45 | 1010.8 |
| 20260504001515 | 55 | 270 | 2.6 | 7.0 | 0.00 | 0.00 | 0.00 | 44 | 1010.7 |
| 20260504001015 | 55 | 270 | 2.6 | 7.0 | 0.00 | 0.00 | 0.00 | 45 | 1010.6 |
| 20260504000515 | 55 | 270 | 1.7 | 3.5 | 0.00 | 0.00 | 0.00 | 43 | 1010.6 |
| 20260504000015 | 56 | 270 | 0.9 | 2.6 | 0.00 | 0.00 | 0.00 | 43 | 1010.5 |
| 20260503235515 | 56 | 293 | 1.7 | 4.3 | 0.00 | 0.00 | 0.00 | 42 | 1010.4 |
| 20260503235015 | 56 | 293 | 1.7 | 3.5 | 0.00 | 0.00 | 0.00 | 42 | 1010.3 |
| 20260503234515 | 56 | 270 | 3.5 | 7.0 | 0.00 | 0.00 | 0.00 | 42 | 1010.3 |
| 20260503234015 | 57 | 270 | 3.5 | 8.7 | 0.00 | 0.00 | 0.00 | 40 | 1010.2 |
| 20260503233515 | 57 | 293 | 2.6 | 7.0 | 0.00 | 0.00 | 0.00 | 41 | 1010.1 |
| 20260503233015 | 57 | 270 | 2.6 | 5.2 | 0.00 | 0.00 | 0.00 | 40 | 1010.1 |
| 20260503232515 | 57 | 270 | 1.7 | 3.5 | 0.00 | 0.00 | 0.00 | 40 | 1010.0 |
| 20260503232015 | 57 | 293 | 0.9 | 3.5 | 0.00 | 0.00 | 0.00 | 40 | 1010.1 |
| 20260503231515 | 57 | 293 | 3.5 | 8.7 | 0.00 | 0.00 | 0.00 | 40 | 1010.0 |
| 20260503231015 | 57 | 293 | 2.6 | 7.0 | 0.00 | 0.00 | 0.00 | 40 | 1010.0 |
| 20260503230515 | 57 | 270 | 2.6 | 7.0 | 0.00 | 0.00 | 0.00 | 39 | 1009.9 |
| 20260503230015 | 57 | 248 | 1.7 | 5.2 | 0.00 | 0.00 | 0.00 | 39 | 1009.8 |
| 20260503225515 | 58 | 293 | 1.7 | 3.5 | 0.00 | 0.00 | 0.00 | 39 | 1009.8 |
| 20260503225015 | 58 | 293 | 1.7 | 5.2 | 0.00 | 0.00 | 0.00 | 39 | 1009.8 |
| 20260503224515 | 58 | 270 | 1.7 | 6.1 | 0.00 | 0.00 | 0.00 | 39 | 1009.7 |
| 20260503224015 | 58 | 270 | 2.6 | 7.0 | 0.00 | 0.00 | 0.00 | 39 | 1009.8 |
| 20260503223515 | 58 | 293 | 4.3 | 8.7 | 0.00 | 0.00 | 0.00 | 38 | 1009.7 |
| 20260503223015 | 58 | 270 | 3.5 | 7.0 | 0.00 | 0.00 | 0.00 | 37 | 1009.7 |
| 20260503222515 | 58 | 315 | 2.6 | 7.8 | 0.00 | 0.00 | 0.00 | 39 | 1009.6 |
| 20260503222015 | 58 | 315 | 4.3 | 10.4 | 0.00 | 0.00 | 0.00 | 36 | 1009.5 |
| 20260503221515 | 58 | 270 | 5.2 | 12.2 | 0.00 | 0.00 | 0.00 | 36 | 1009.4 |
| 20260503221015 | 59 | 315 | 4.3 | 10.4 | 0.00 | 0.00 | 0.00 | 35 | 1009.5 |
| 20260503220515 | 58 | 270 | 4.3 | 12.2 | 0.00 | 0.00 | 0.00 | 35 | 1009.4 |
| 20260503220015 | 58 | 270 | 4.3 | 8.7 | 0.00 | 0.00 | 0.00 | 35 | 1009.5 |
| 20260503215515 | 58 | 270 | 3.5 | 10.4 | 0.00 | 0.00 | 0.00 | 34 | 1009.5 |
| 20260503215015 | 59 | 293 | 3.5 | 9.6 | 0.00 | 0.00 | 0.00 | 34 | 1009.5 |
| 20260503214515 | 59 | 293 | 2.6 | 7.8 | 0.00 | 0.00 | 0.00 | 33 | 1009.5 |
| 20260503214015 | 59 | 270 | 5.2 | 10.4 | 0.00 | 0.00 | 0.00 | 33 | 1009.6 |
| 20260503213515 | 60 | 270 | 3.5 | 9.6 | 0.00 | 0.00 | 0.00 | 33 | 1009.6 |
| 20260503213015 | 60 | 270 | 4.3 | 12.2 | 0.00 | 0.00 | 0.00 | 31 | 1009.4 |